This is the latest recevied weather packets stored in our database for station/object DO7ZT-10. If no packets are shown the sender has not sent any weather packets the latest 10 day(s).
| Time | Temp. | Humidity | Pressure | Rain* | Wind** | Luminosity | Snow |
|---|---|---|---|---|---|---|---|
| 1777138418 | 15° C | 34% | 1012.3 hPa | - | - | - | - |
| 1777137518 | 15.56° C | 32% | 1012.2 hPa | - | - | - | - |
| 1777136618 | 15.56° C | 29% | 1012.4 hPa | - | - | - | - |
| 1777135718 | 16.11° C | 29% | 1012.5 hPa | - | - | - | - |
| 1777134818 | 16.67° C | 34% | 1012.6 hPa | - | - | - | - |
| 1777133918 | 16.67° C | 35% | 1012.7 hPa | - | - | - | - |
| 1777133018 | 16.67° C | 35% | 1012.7 hPa | - | - | - | - |
| 1777132118 | 16.67° C | 36% | 1012.9 hPa | - | - | - | - |
| 1777131218 | 17.22° C | 37% | 1013 hPa | - | - | - | - |
| 1777130318 | 17.22° C | 37% | 1012.9 hPa | - | - | - | - |
| 1777129418 | 17.22° C | 36% | 1013.1 hPa | - | - | - | - |
| 1777128518 | 17.22° C | 33% | 1013.1 hPa | - | - | - | - |
| 1777127618 | 17.22° C | 31% | 1013 hPa | - | - | - | - |
| 1777126717 | 17.78° C | 33% | 1013.1 hPa | - | - | - | - |
| 1777125818 | 17.22° C | 35% | 1013.3 hPa | - | - | - | - |
| 1777124917 | 17.78° C | 33% | 1013.4 hPa | - | - | - | - |
| 1777124017 | 17.22° C | 32% | 1013.4 hPa | - | - | - | - |
| 1777123117 | 17.78° C | 34% | 1013.5 hPa | - | - | - | - |
| 1777122217 | 17.78° C | 33% | 1013.6 hPa | - | - | - | - |
| 1777121317 | 17.78° C | 35% | 1013.7 hPa | - | - | - | - |
| 1777120417 | 17.78° C | 36% | 1013.8 hPa | - | - | - | - |
| 1777119517 | 17.78° C | 39% | 1013.9 hPa | - | - | - | - |
| 1777118617 | 17.78° C | 40% | 1014.1 hPa | - | - | - | - |
| 1777117717 | 16.67° C | 40% | 1014.2 hPa | - | - | - | - |
| 1777116817 | 16.11° C | 42% | 1014.4 hPa | - | - | - | - |
* Rain since midnight (hover to see other rain measurements)
** Current wind speed in m/s (hover to see current wind gust speed)